#Datum;Uhrzeit;WR;Pac;DaySum;Status;WR;Pac;DaySum;Status;Pdc1;Udc;Temp;WR;Pac;DaySum;Status;Pdc1;Udc;Temp;WR;Pac;DaySum;Status;Pdc1;Udc;Temp;WR;Pac;DaySum;Status;Pdc1;Pdc2;Udc1;Udc2;Temp;WR;Pac;DaySum;Status;Pdc1;Pdc2;Udc1;Udc2;Temp;WR;Pac;DaySum;Status;Pdc1;Udc;Temp;WR;Pac;DaySum;Status;Pdc1;Udc;Temp;WR;Pac;DaySum;Status;Pdc1;Udc;Temp
23.12.17;23:55:00;1;555;13137;0;2;0;1347;0;0;0;0;3;0;745;0;0;0;0;4;0;1053;0;0;0;0;5;0;3145;0;0;0;0;0;0;6;0;2129;0;0;0;0;0;0;7;0;1344;0;0;0;0;8;0;1352;0;0;0;0;9;0;648;0;0;0;0
23.12.17;23:50:00;1;542;13091;0;2;0;1347;0;0;0;0;3;0;745;0;0;0;0;4;0;1053;0;0;0;0;5;0;3145;0;0;0;0;0;0;6;0;2129;0;0;0;0;0;0;7;0;1344;0;0;0;0;8;0;1352;0;0;0;0;9;0;648;0;0;0;0
23.12.17;23:45:00;1;542;13046;0;2;0;1347;0;0;0;0;3;0;745;0;0;0;0;4;0;1053;0;0;0;0;5;0;3145;0;0;0;0;0;0;6;0;2129;0;0;0;0;0;0;7;0;1344;0;0;0;0;8;0;1352;0;0;0;0;9;0;648;0;0;0;0
23.12.17;23:40:00;1;898;13001;0;2;0;1347;0;0;0;0;3;0;745;0;0;0;0;4;0;1053;0;0;0;0;5;0;3145;0;0;0;0;0;0;6;0;2129;0;0;0;0;0;0;7;0;1344;0;0;0;0;8;0;1352;0;0;0;0;9;0;648;0;0;0;0
23.12.17;23:35:00;1;558;12927;0;2;0;1347;0;0;0;0;3;0;745;0;0;0;0;4;0;1053;0;0;0;0;5;0;3145;0;0;0;0;0;0;6;0;2129;0;0;0;0;0;0;7;0;1344;0;0;0;0;8;0;1352;0;0;0;0;9;0;648;0;0;0;0
23.12.17;23:30:00;1;476;12881;0;2;0;1347;0;0;0;0;3;0;745;0;0;0;0;4;0;1053;0;0;0;0;5;0;3145;0;0;0;0;0;0;6;0;2129;0;0;0;0;0;0;7;0;1344;0;0;0;0;8;0;1352;0;0;0;0;9;0;648;0;0;0;0
23.12.17;23:25:00;1;468;12841;0;2;0;1347;0;0;0;0;3;0;745;0;0;0;0;4;0;1053;0;0;0;0;5;0;3145;0;0;0;0;0;0;6;0;2129;0;0;0;0;0;0;7;0;1344;0;0;0;0;8;0;1352;0;0;0;0;9;0;648;0;0;0;0
23.12.17;23:20:00;1;472;12801;0;2;0;1347;0;0;0;0;3;0;745;0;0;0;0;4;0;1053;0;0;0;0;5;0;3145;0;0;0;0;0;0;6;0;2129;0;0;0;0;0;0;7;0;1344;0;0;0;0;8;0;1352;0;0;0;0;9;0;648;0;0;0;0
23.12.17;23:15:00;1;467;12762;0;2;0;1347;0;0;0;0;3;0;745;0;0;0;0;4;0;1053;0;0;0;0;5;0;3145;0;0;0;0;0;0;6;0;2129;0;0;0;0;0;0;7;0;1344;0;0;0;0;8;0;1352;0;0;0;0;9;0;648;0;0;0;0
23.12.17;23:10:00;1;472;12723;0;2;0;1347;0;0;0;0;3;0;745;0;0;0;0;4;0;1053;0;0;0;0;5;0;3145;0;0;0;0;0;0;6;0;2129;0;0;0;0;0;0;7;0;1344;0;0;0;0;8;0;1352;0;0;0;0;9;0;648;0;0;0;0
23.12.17;23:05:00;1;483;12684;0;2;0;1347;0;0;0;0;3;0;745;0;0;0;0;4;0;1053;0;0;0;0;5;0;3145;0;0;0;0;0;0;6;0;2129;0;0;0;0;0;0;7;0;1344;0;0;0;0;8;0;1352;0;0;0;0;9;0;648;0;0;0;0
23.12.17;23:00:00;1;824;12643;0;2;0;1347;0;0;0;0;3;0;745;0;0;0;0;4;0;1053;0;0;0;0;5;0;3145;0;0;0;0;0;0;6;0;2129;0;0;0;0;0;0;7;0;1344;0;0;0;0;8;0;1352;0;0;0;0;9;0;648;0;0;0;0
23.12.17;22:55:00;1;473;12574;0;2;0;1347;0;0;0;0;3;0;745;0;0;0;0;4;0;1053;0;0;0;0;5;0;3145;2;0;0;0;0;0;6;0;2129;2;0;0;0;0;0;7;0;1344;0;0;0;0;8;0;1352;0;0;0;0;9;0;648;0;0;0;0
23.12.17;22:50:00;1;478;12535;0;2;0;1347;0;0;0;0;3;0;745;0;0;0;0;4;0;1053;0;0;0;0;5;0;3145;2;0;0;0;0;0;6;0;2129;2;0;0;0;0;0;7;0;1344;0;0;0;0;8;0;1352;0;0;0;0;9;0;648;0;0;0;0
23.12.17;22:45:00;1;477;12495;0;2;0;1347;0;0;0;0;3;0;745;0;0;0;0;4;0;1053;0;0;0;0;5;0;3145;2;0;0;0;0;0;6;0;2129;2;0;0;0;0;0;7;0;1344;0;0;0;0;8;0;1352;0;0;0;0;9;0;648;0;0;0;0
23.12.17;22:40:00;1;480;12455;0;2;0;1347;0;0;0;0;3;0;745;0;0;0;0;4;0;1053;0;0;0;0;5;0;3145;2;0;0;0;0;0;6;0;2129;2;0;0;0;0;0;7;0;1344;0;0;0;0;8;0;1352;0;0;0;0;9;0;648;0;0;0;0
23.12.17;22:35:00;1;483;12414;0;2;0;1347;0;0;0;0;3;0;745;0;0;0;0;4;0;1053;0;0;0;0;5;0;3145;2;0;0;0;0;0;6;0;2129;2;0;0;0;0;0;7;0;1344;0;0;0;0;8;0;1352;0;0;0;0;9;0;648;0;0;0;0
23.12.17;22:30:00;1;481;12374;0;2;0;1347;0;0;0;0;3;0;745;0;0;0;0;4;0;1053;0;0;0;0;5;0;3145;2;0;0;0;0;0;6;0;2129;2;0;0;0;0;0;7;0;1344;0;0;0;0;8;0;1352;0;0;0;0;9;0;648;0;0;0;0
23.12.17;22:25:00;1;478;12334;0;2;0;1347;0;0;0;0;3;0;745;0;0;0;0;4;0;1053;0;0;0;0;5;0;3145;2;0;0;0;0;0;6;0;2129;2;0;0;0;0;0;7;0;1344;0;0;0;0;8;0;1352;0;0;0;0;9;0;648;0;0;0;0
23.12.17;22:20:00;1;958;12294;0;2;0;1347;0;0;0;0;3;0;745;0;0;0;0;4;0;1053;0;0;0;0;5;0;3145;2;0;0;0;0;0;6;0;2129;2;0;0;0;0;0;7;0;1344;0;0;0;0;8;0;1352;0;0;0;0;9;0;648;0;0;0;0
23.12.17;22:15:00;1;462;12226;0;2;0;1347;0;0;0;0;3;0;745;0;0;0;0;4;0;1053;0;0;0;0;5;0;3145;2;0;0;0;0;0;6;0;2129;2;0;0;0;0;0;7;0;1344;0;0;0;0;8;0;1352;0;0;0;0;9;0;648;0;0;0;0
23.12.17;22:10:00;1;516;12187;0;2;0;1347;0;0;0;0;3;0;745;0;0;0;0;4;0;1053;0;0;0;0;5;0;3145;2;0;0;0;0;0;6;0;2129;2;0;0;0;0;0;7;0;1344;0;0;0;0;8;0;1352;0;0;0;0;9;0;648;0;0;0;0
23.12.17;22:05:00;1;532;12144;0;2;0;1347;0;0;0;0;3;0;745;0;0;0;0;4;0;1053;0;0;0;0;5;0;3145;2;0;0;0;0;0;6;0;2129;2;0;0;0;0;0;7;0;1344;0;0;0;0;8;0;1352;0;0;0;0;9;0;648;0;0;0;0
23.12.17;22:00:00;1;556;12099;0;2;0;1347;0;0;0;0;3;0;745;0;0;0;0;4;0;1053;0;0;0;0;5;0;3145;2;0;0;0;0;0;6;0;2129;2;0;0;0;0;0;7;0;1344;0;0;0;0;8;0;1352;0;0;0;0;9;0;648;0;0;0;0
23.12.17;21:55:00;1;548;12053;0;2;0;1347;0;0;0;0;3;0;745;0;0;0;0;4;0;1053;0;0;0;0;5;0;3145;2;0;0;0;0;0;6;0;2129;2;0;0;0;0;0;7;0;1344;0;0;0;0;8;0;1352;0;0;0;0;9;0;648;0;0;0;0
23.12.17;21:50:00;1;541;12007;0;2;0;1347;0;0;0;0;3;0;745;0;0;0;0;4;0;1053;0;0;0;0;5;0;3145;2;0;0;0;0;0;6;0;2129;2;0;0;0;0;0;7;0;1344;0;0;0;0;8;0;1352;0;0;0;0;9;0;648;0;0;0;0
23.12.17;21:45:00;1;541;11962;0;2;0;1347;0;0;0;0;3;0;745;0;0;0;0;4;0;1053;0;0;0;0;5;0;3145;2;0;0;0;0;0;6;0;2129;2;0;0;0;0;0;7;0;1344;0;0;0;0;8;0;1352;0;0;0;0;9;0;648;0;0;0;0
23.12.17;21:40:00;1;726;11917;0;2;0;1347;0;0;0;0;3;0;745;0;0;0;0;4;0;1053;0;0;0;0;5;0;3145;2;0;0;0;0;0;6;0;2129;2;0;0;0;0;0;7;0;1344;0;0;0;0;8;0;1352;0;0;0;0;9;0;648;0;0;0;0
23.12.17;21:35:00;1;502;11842;0;2;0;1347;0;0;0;0;3;0;745;0;0;0;0;4;0;1053;0;0;0;0;5;0;3145;2;0;0;0;0;0;6;0;2129;2;0;0;0;0;0;7;0;1344;0;0;0;0;8;0;1352;0;0;0;0;9;0;648;0;0;0;0
23.12.17;21:30:00;1;486;11799;0;2;0;1347;0;0;0;0;3;0;745;0;0;0;0;4;0;1053;0;0;0;0;5;0;3145;2;0;0;0;0;0;6;0;2129;2;0;0;0;0;0;7;0;1344;0;0;0;0;8;0;1352;0;0;0;0;9;0;648;0;0;0;0
23.12.17;21:25:00;1;490;11759;0;2;0;1347;0;0;0;0;3;0;745;0;0;0;0;4;0;1053;0;0;0;0;5;0;3145;2;0;0;0;0;0;6;0;2129;2;0;0;0;0;0;7;0;1344;0;0;0;0;8;0;1352;0;0;0;0;9;0;648;0;0;0;0
23.12.17;21:20:00;1;474;11718;0;2;0;1347;0;0;0;0;3;0;745;0;0;0;0;4;0;1053;0;0;0;0;5;0;3145;2;0;0;0;0;0;6;0;2129;2;0;0;0;0;0;7;0;1344;0;0;0;0;8;0;1352;0;0;0;0;9;0;648;0;0;0;0
23.12.17;21:15:00;1;486;11678;0;2;0;1347;0;0;0;0;3;0;745;0;0;0;0;4;0;1053;0;0;0;0;5;0;3145;2;0;0;0;0;0;6;0;2129;2;0;0;0;0;0;7;0;1344;0;0;0;0;8;0;1352;0;0;0;0;9;0;648;0;0;0;0
23.12.17;21:10:00;1;486;11637;0;2;0;1347;0;0;0;0;3;0;745;0;0;0;0;4;0;1053;0;0;0;0;5;0;3145;2;0;0;0;0;0;6;0;2129;2;0;0;0;0;0;7;0;1344;0;0;0;0;8;0;1352;0;0;0;0;9;0;648;0;0;0;0
23.12.17;21:05:00;1;491;11597;0;2;0;1347;0;0;0;0;3;0;745;0;0;0;0;4;0;1053;0;0;0;0;5;0;3145;2;0;0;0;0;0;6;0;2129;2;0;0;0;0;0;7;0;1344;0;0;0;0;8;0;1352;0;0;0;0;9;0;648;0;0;0;0
23.12.17;21:00:00;1;522;11556;0;2;0;1347;0;0;0;0;3;0;745;0;0;0;0;4;0;1053;0;0;0;0;5;0;3145;2;0;0;0;0;0;6;0;2129;2;0;0;0;0;0;7;0;1344;0;0;0;0;8;0;1352;0;0;0;0;9;0;648;0;0;0;0
23.12.17;20:55:00;1;911;11513;0;2;0;1347;0;0;0;0;3;0;745;0;0;0;0;4;0;1053;0;0;0;0;5;0;3145;2;0;0;0;0;0;6;0;2129;2;0;0;0;0;0;7;0;1344;0;0;0;0;8;0;1352;0;0;0;0;9;0;648;0;0;0;0
23.12.17;20:50:00;1;492;11442;0;2;0;1347;0;0;0;0;3;0;745;0;0;0;0;4;0;1053;0;0;0;0;5;0;3145;2;0;0;0;0;0;6;0;2129;2;0;0;0;0;0;7;0;1344;0;0;0;0;8;0;1352;0;0;0;0;9;0;648;0;0;0;0
23.12.17;20:45:00;1;506;11401;0;2;0;1347;0;0;0;0;3;0;745;0;0;0;0;4;0;1053;0;0;0;0;5;0;3145;2;0;0;0;0;0;6;0;2129;2;0;0;0;0;0;7;0;1344;0;0;0;0;8;0;1352;0;0;0;0;9;0;648;0;0;0;0
23.12.17;20:40:00;1;509;11359;0;2;0;1347;0;0;0;0;3;0;745;0;0;0;0;4;0;1053;0;0;0;0;5;0;3145;2;0;0;0;0;0;6;0;2129;2;0;0;0;0;0;7;0;1344;0;0;0;0;8;0;1352;0;0;0;0;9;0;648;0;0;0;0
23.12.17;20:35:00;1;511;11316;0;2;0;1347;0;0;0;0;3;0;745;0;0;0;0;4;0;1053;0;0;0;0;5;0;3145;2;0;0;0;0;0;6;0;2129;2;0;0;0;0;0;7;0;1344;0;0;0;0;8;0;1352;0;0;0;0;9;0;648;0;0;0;0
23.12.17;20:30:00;1;508;11274;0;2;0;1347;0;0;0;0;3;0;745;0;0;0;0;4;0;1053;0;0;0;0;5;0;3145;2;0;0;0;0;0;6;0;2129;2;0;0;0;0;0;7;0;1344;0;0;0;0;8;0;1352;0;0;0;0;9;0;648;0;0;0;0
23.12.17;20:25:00;1;511;11231;0;2;0;1347;0;0;0;0;3;0;745;0;0;0;0;4;0;1053;0;0;0;0;5;0;3145;2;0;0;0;0;0;6;0;2129;2;0;0;0;0;0;7;0;1344;0;0;0;0;8;0;1352;0;0;0;0;9;0;648;0;0;0;0
23.12.17;20:20:00;1;590;11188;0;2;0;1347;0;0;0;0;3;0;745;0;0;0;0;4;0;1053;0;0;0;0;5;0;3145;2;0;0;0;0;0;6;0;2129;2;0;0;0;0;0;7;0;1344;0;0;0;0;8;0;1352;0;0;0;0;9;0;648;0;0;0;0
23.12.17;20:15:00;1;583;11139;0;2;0;1347;0;0;0;0;3;0;745;0;0;0;0;4;0;1053;0;0;0;0;5;0;3145;2;0;0;0;0;0;6;0;2129;2;0;0;0;0;0;7;0;1344;0;0;0;0;8;0;1352;0;0;0;0;9;0;648;0;0;0;0
23.12.17;20:10:00;1;694;11091;0;2;0;1347;0;0;0;0;3;0;745;0;0;0;0;4;0;1053;0;0;0;0;5;0;3145;2;0;0;0;0;0;6;0;2129;2;0;0;0;0;0;7;0;1344;0;0;0;0;8;0;1352;0;0;0;0;9;0;648;0;0;0;0
23.12.17;20:05:00;1;500;11021;0;2;0;1347;0;0;0;0;3;0;745;0;0;0;0;4;0;1053;0;0;0;0;5;0;3145;2;0;0;0;0;0;6;0;2129;2;0;0;0;0;0;7;0;1344;0;0;0;0;8;0;1352;0;0;0;0;9;0;648;0;0;0;0
23.12.17;20:00:00;1;512;10978;0;2;0;1347;0;0;0;0;3;0;745;0;0;0;0;4;0;1053;0;0;0;0;5;0;3145;2;0;0;0;0;0;6;0;2129;2;0;0;0;0;0;7;0;1344;0;0;0;0;8;0;1352;0;0;0;0;9;0;648;0;0;0;0
23.12.17;19:55:00;1;532;10936;0;2;0;1347;0;0;0;0;3;0;745;0;0;0;0;4;0;1053;0;0;0;0;5;0;3145;2;0;0;0;0;0;6;0;2129;2;0;0;0;0;0;7;0;1344;0;0;0;0;8;0;1352;0;0;0;0;9;0;648;0;0;0;0
23.12.17;19:50:00;1;530;10891;0;2;0;1347;0;0;0;0;3;0;745;0;0;0;0;4;0;1053;0;0;0;0;5;0;3145;2;0;0;0;0;0;6;0;2129;2;0;0;0;0;0;7;0;1344;0;0;0;0;8;0;1352;0;0;0;0;9;0;648;0;0;0;0
23.12.17;19:45:00;1;545;10847;0;2;0;1347;0;0;0;0;3;0;745;0;0;0;0;4;0;1053;0;0;0;0;5;0;3145;2;0;0;0;0;0;6;0;2129;2;0;0;0;0;0;7;0;1344;0;0;0;0;8;0;1352;0;0;0;0;9;0;648;0;0;0;0
23.12.17;19:40:00;1;431;10801;0;2;0;1347;0;0;0;0;3;0;745;0;0;0;0;4;0;1053;0;0;0;0;5;0;3145;2;0;0;0;0;0;6;0;2129;2;0;0;0;0;0;7;0;1344;0;0;0;0;8;0;1352;0;0;0;0;9;0;648;0;0;0;0
23.12.17;19:35:00;1;459;10764;0;2;0;1347;0;0;0;0;3;0;745;0;0;0;0;4;0;1053;0;0;0;0;5;0;3145;2;0;0;0;0;0;6;0;2129;2;0;0;0;0;0;7;0;1344;0;0;0;0;8;0;1352;0;0;0;0;9;0;648;0;0;0;0
23.12.17;19:30:00;1;412;10727;0;2;0;1347;0;0;0;0;3;0;745;0;0;0;0;4;0;1053;0;0;0;0;5;0;3145;2;0;0;0;0;0;6;0;2129;2;0;0;0;0;0;7;0;1344;0;0;0;0;8;0;1352;0;0;0;0;9;0;648;0;0;0;0
23.12.17;19:25:00;1;612;10683;0;2;0;1347;0;0;0;0;3;0;745;0;0;0;0;4;0;1053;0;0;0;0;5;0;3145;2;0;0;0;0;0;6;0;2129;2;0;0;0;0;0;7;0;1344;0;0;0;0;8;0;1352;0;0;0;0;9;0;648;0;0;0;0
23.12.17;19:20:00;1;413;10629;0;2;0;1347;0;0;0;0;3;0;745;0;0;0;0;4;0;1053;0;0;0;0;5;0;3145;2;0;0;0;0;0;6;0;2129;2;0;0;0;0;0;7;0;1344;0;0;0;0;8;0;1352;0;0;0;0;9;0;648;0;0;0;0
23.12.17;19:15:00;1;452;10594;0;2;0;1347;0;0;0;0;3;0;745;0;0;0;0;4;0;1053;0;0;0;0;5;0;3145;2;0;0;0;0;0;6;0;2129;2;0;0;0;0;0;7;0;1344;0;0;0;0;8;0;1352;0;0;0;0;9;0;648;0;0;0;0
23.12.17;19:10:00;1;420;10557;0;2;0;1347;0;0;0;0;3;0;745;0;0;0;0;4;0;1053;0;0;0;0;5;0;3145;2;0;0;0;0;0;6;0;2129;2;0;0;0;0;0;7;0;1344;0;0;0;0;8;0;1352;0;0;0;0;9;0;648;0;0;0;0
23.12.17;19:05:00;1;426;10522;0;2;0;1347;0;0;0;0;3;0;745;0;0;0;0;4;0;1053;0;0;0;0;5;0;3145;2;0;0;0;0;0;6;0;2129;2;0;0;0;0;0;7;0;1344;0;0;0;0;8;0;1352;0;0;0;0;9;0;648;0;0;0;0
23.12.17;19:00:00;1;433;10487;0;2;0;1347;0;0;0;0;3;0;745;0;0;0;0;4;0;1053;0;0;0;0;5;0;3145;2;0;0;0;0;0;6;0;2129;2;0;0;0;0;0;7;0;1344;0;0;0;0;8;0;1352;0;0;0;0;9;0;648;0;0;0;0
23.12.17;18:55:00;1;437;10450;0;2;0;1347;0;0;0;0;3;0;745;0;0;0;0;4;0;1053;0;0;0;0;5;0;3145;2;0;0;0;0;0;6;0;2129;2;0;0;0;0;0;7;0;1344;0;0;0;0;8;0;1352;0;0;0;0;9;0;648;0;0;0;0
23.12.17;18:50:00;1;569;10414;0;2;0;1347;0;0;0;0;3;0;745;0;0;0;0;4;0;1053;0;0;0;0;5;0;3145;2;0;0;0;0;0;6;0;2129;2;0;0;0;0;0;7;0;1344;0;0;0;0;8;0;1352;0;0;0;0;9;0;648;0;0;0;0
23.12.17;18:45:00;1;549;10368;0;2;0;1347;0;0;0;0;3;0;745;0;0;0;0;4;0;1053;0;0;0;0;5;0;3145;2;0;0;0;0;0;6;0;2129;2;0;0;0;0;0;7;0;1344;0;0;0;0;8;0;1352;0;0;0;0;9;0;648;0;0;0;0
23.12.17;18:40:00;1;710;10322;0;2;0;1347;0;0;0;0;3;0;745;0;0;0;0;4;0;1053;0;0;0;0;5;0;3145;2;0;0;0;0;0;6;0;2129;2;0;0;0;0;0;7;0;1344;0;0;0;0;8;0;1352;0;0;0;0;9;0;648;0;0;0;0
23.12.17;18:35:00;1;559;10249;0;2;0;1347;0;0;0;0;3;0;745;0;0;0;0;4;0;1053;0;0;0;0;5;0;3145;2;0;0;0;0;0;6;0;2129;2;0;0;0;0;0;7;0;1344;0;0;0;0;8;0;1352;0;0;0;0;9;0;648;0;0;0;0
23.12.17;18:30:00;1;574;10201;0;2;0;1347;0;0;0;0;3;0;745;0;0;0;0;4;0;1053;0;0;0;0;5;0;3145;2;0;0;0;0;0;6;0;2129;2;0;0;0;0;0;7;0;1344;0;0;0;0;8;0;1352;0;0;0;0;9;0;648;0;0;0;0
23.12.17;18:25:00;1;1177;10152;0;2;0;1347;0;0;0;0;3;0;745;0;0;0;0;4;0;1053;0;0;0;0;5;0;3145;2;0;0;0;0;0;6;0;2129;2;0;0;0;0;0;7;0;1344;0;0;0;0;8;0;1352;0;0;0;0;9;0;648;0;0;0;0
23.12.17;18:20:00;1;1895;10035;0;2;0;1347;0;0;0;0;3;0;745;0;0;0;0;4;0;1053;0;0;0;0;5;0;3145;2;0;0;0;0;0;6;0;2129;2;0;0;0;0;0;7;0;1344;0;0;0;0;8;0;1352;0;0;0;0;9;0;648;0;0;0;0
23.12.17;18:15:00;1;2170;9910;0;2;0;1347;0;0;0;0;3;0;745;0;0;0;0;4;0;1053;0;0;0;0;5;0;3145;2;0;0;0;0;0;6;0;2129;2;0;0;0;0;0;7;0;1344;0;0;0;0;8;0;1352;0;0;0;0;9;0;648;0;0;0;0
23.12.17;18:10:00;1;2764;9751;0;2;0;1347;0;0;0;0;3;0;745;0;0;0;0;4;0;1053;0;0;0;0;5;0;3145;2;0;0;0;0;0;6;0;2129;2;0;0;0;0;0;7;0;1344;0;0;0;0;8;0;1352;0;0;0;0;9;0;648;0;0;0;0
23.12.17;18:05:00;1;2721;9522;0;2;0;1347;0;0;0;0;3;0;745;0;0;0;0;4;0;1053;0;0;0;0;5;0;3145;2;0;0;0;0;0;6;0;2129;2;0;0;0;0;0;7;0;1344;0;0;0;0;8;0;1352;0;0;0;0;9;0;648;0;0;0;0
23.12.17;18:00:00;1;1473;9294;0;2;0;1347;0;0;0;0;3;0;745;0;0;0;0;4;0;1053;0;0;0;0;5;0;3145;2;0;0;0;0;0;6;0;2129;2;0;0;0;0;0;7;0;1344;0;0;0;0;8;0;1352;0;0;0;0;9;0;648;0;0;0;0
23.12.17;17:55:00;1;592;9173;0;2;0;1347;0;0;0;0;3;0;745;0;0;0;0;4;0;1053;0;0;0;0;5;0;3145;2;0;0;0;0;0;6;0;2129;2;0;0;0;0;0;7;0;1344;0;0;0;0;8;0;1352;0;0;0;0;9;0;648;0;0;0;0
23.12.17;17:50:00;1;485;9125;0;2;0;1347;0;0;0;0;3;0;745;0;0;0;0;4;0;1053;0;0;0;0;5;0;3145;2;0;0;0;0;0;6;0;2129;2;0;0;0;0;0;7;0;1344;0;0;0;0;8;0;1352;0;0;0;0;9;0;648;0;0;0;0
23.12.17;17:45:00;1;486;9085;0;2;0;1347;0;0;0;0;3;0;745;0;0;0;0;4;0;1053;0;0;0;0;5;0;3145;2;0;0;0;0;0;6;0;2129;2;0;0;0;0;0;7;0;1344;0;0;0;0;8;0;1352;0;0;0;0;9;0;648;0;0;0;0
23.12.17;17:40:00;1;634;9045;0;2;0;1347;0;0;0;0;3;0;745;0;0;0;0;4;0;1053;0;0;0;0;5;0;3145;2;0;0;0;0;0;6;0;2129;2;0;0;0;0;0;7;0;1344;0;0;0;0;8;0;1352;0;0;0;0;9;0;648;0;0;0;0
23.12.17;17:35:00;1;818;8996;0;2;0;1347;0;0;0;0;3;0;745;0;0;0;0;4;0;1053;0;0;0;0;5;0;3145;2;0;0;0;0;0;6;0;2129;2;0;0;0;0;0;7;0;1344;0;0;0;0;8;0;1352;0;0;0;0;9;0;648;0;0;0;0
23.12.17;17:30:00;1;2660;8898;0;2;0;1347;0;0;0;0;3;0;745;0;0;0;0;4;0;1053;0;0;0;0;5;0;3145;2;0;0;0;0;0;6;0;2129;2;0;0;0;0;0;7;0;1344;0;0;0;0;8;0;1352;0;0;0;0;9;0;648;0;0;0;0
23.12.17;17:25:00;1;2298;8677;0;2;0;1347;0;0;0;0;3;0;745;0;0;0;0;4;0;1053;0;0;0;0;5;0;3145;2;0;0;0;0;0;6;0;2129;2;0;0;0;0;0;7;0;1344;0;0;0;0;8;0;1352;0;0;0;0;9;0;648;0;0;0;0
23.12.17;17:20:00;1;2244;8485;0;2;0;1347;0;0;0;0;3;0;745;0;0;0;0;4;0;1053;0;0;0;0;5;0;3145;2;0;0;0;0;0;6;0;2129;2;0;0;0;0;0;7;0;1344;0;0;0;0;8;0;1352;0;0;0;0;9;0;648;0;0;0;0
23.12.17;17:15:00;1;688;8318;0;2;0;1347;0;0;0;0;3;0;745;0;0;0;0;4;0;1053;0;0;0;0;5;0;3145;2;0;0;0;0;0;6;0;2129;2;0;0;0;0;0;7;0;1344;0;0;0;0;8;0;1352;0;0;0;0;9;0;648;0;0;0;0
23.12.17;17:10:00;1;504;8254;0;2;0;1347;0;0;0;0;3;0;745;0;0;0;0;4;0;1053;0;0;0;0;5;0;3145;2;0;0;0;0;0;6;0;2129;2;0;0;0;0;0;7;0;1344;0;0;0;0;8;0;1352;0;0;0;0;9;0;648;0;0;0;0
23.12.17;17:05:00;1;649;8212;0;2;0;1347;0;0;0;0;3;0;745;0;0;0;0;4;0;1053;0;0;0;0;5;0;3145;2;0;0;0;0;0;6;0;2129;2;0;0;0;0;0;7;0;1344;0;0;0;0;8;0;1352;0;0;0;0;9;0;648;0;0;0;0
23.12.17;17:00:00;1;610;8156;0;2;0;1347;0;0;0;0;3;0;745;0;0;0;0;4;0;1053;0;0;0;0;5;0;3145;2;0;0;0;0;0;6;0;2129;2;0;0;0;0;0;7;0;1344;0;0;0;0;8;0;1352;0;0;0;0;9;0;648;0;0;0;0
23.12.17;16:55:00;1;792;8094;0;2;0;1347;0;0;0;0;3;0;745;0;0;0;0;4;0;1053;0;0;0;0;5;0;3145;2;0;0;0;0;0;6;0;2129;2;0;0;0;0;0;7;0;1344;0;0;0;0;8;0;1352;0;0;0;0;9;0;648;0;0;0;0
23.12.17;16:50:00;1;548;8027;0;2;0;1347;0;0;0;0;3;0;745;0;0;0;0;4;0;1053;0;0;0;0;5;0;3145;2;0;0;0;0;0;6;0;2129;2;0;0;0;0;0;7;0;1344;0;0;0;0;8;0;1352;0;0;0;0;9;0;648;0;0;0;0
23.12.17;16:45:00;1;261;7983;0;2;0;1347;0;0;0;0;3;0;745;0;0;0;0;4;0;1053;0;0;0;0;5;0;3145;2;0;0;0;0;0;6;0;2129;2;0;0;0;0;0;7;0;1344;0;0;0;0;8;0;1352;0;0;0;0;9;0;648;0;0;0;0
23.12.17;16:40:00;1;857;7961;0;2;0;1347;0;0;0;0;3;0;745;0;0;0;0;4;0;1053;0;0;0;0;5;0;3145;2;0;0;0;0;0;6;0;2129;2;0;0;0;0;0;7;0;1344;0;0;0;0;8;0;1352;0;0;0;0;9;0;648;0;0;0;0
23.12.17;16:35:00;1;203;7913;0;2;0;1347;0;0;0;0;3;0;745;6;0;274;12;4;0;1053;0;0;0;0;5;0;3145;2;0;0;0;0;0;6;0;2129;2;0;0;0;0;0;7;0;1344;0;0;0;0;8;0;1352;0;0;0;0;9;0;648;0;0;0;0
23.12.17;16:30:00;1;203;7896;0;2;0;1347;0;0;0;0;3;0;745;6;0;261;13;4;0;1053;0;0;0;0;5;0;3145;2;0;0;0;0;0;6;0;2129;2;0;0;0;0;0;7;0;1344;0;0;0;0;8;0;1352;0;0;0;0;9;0;648;0;0;0;0
23.12.17;16:25:00;1;470;7879;0;2;0;1347;2;0;263;9;3;0;745;6;0;296;13;4;0;1053;0;0;44;6;5;0;3145;2;0;0;0;0;0;6;0;2129;2;0;0;0;0;0;7;0;1344;0;0;0;0;8;0;1352;0;0;0;0;9;0;648;0;0;0;0
23.12.17;16:20:00;1;232;7834;0;2;0;1347;6;0;291;9;3;0;745;6;0;329;13;4;0;1053;1;0;86;10;5;0;3145;2;0;0;0;0;0;6;0;2129;0;0;0;0;0;0;7;0;1344;0;0;0;0;8;0;1352;0;0;0;0;9;0;648;0;0;0;0
23.12.17;16:15:00;1;237;7814;0;2;0;1347;6;0;338;10;3;0;745;6;2;399;13;4;0;1053;1;0;138;10;5;0;3145;2;0;1;310;315;17;6;0;2129;1;10;3;180;429;20;7;0;1344;0;0;249;10;8;0;1352;0;0;218;10;9;0;648;0;0;233;7
23.12.17;16:10:00;1;478;7795;0;2;0;1347;6;0;380;10;3;0;745;6;1;461;13;4;0;1053;1;0;202;11;5;13;3145;26;2;4;398;610;22;6;0;2129;23;8;3;296;555;21;7;0;1344;6;0;375;13;8;0;1352;6;0;380;13;9;0;648;6;0;387;9
23.12.17;16:05:00;1;487;7748;0;2;0;1347;6;0;397;10;3;1;745;6;3;454;13;4;0;1053;3;0;213;11;5;13;3144;26;3;5;415;660;22;6;0;2129;8;11;2;429;574;21;7;0;1344;6;2;407;13;8;0;1352;6;2;426;13;9;0;648;6;1;456;9
23.12.17;16:00:00;1;195;7729;0;2;0;1347;6;0;408;10;3;2;745;6;4;496;13;4;0;1053;3;0;228;11;5;52;3142;4;14;16;391;633;22;6;0;2129;8;5;0;463;586;22;7;0;1344;6;1;447;13;8;0;1352;6;1;450;13;9;1;648;6;1;490;9
23.12.17;15:55:00;1;198;7713;0;2;0;1347;6;0;402;10;3;0;745;6;0;511;13;4;0;1053;3;0;219;11;5;40;3138;1;10;9;399;638;23;6;0;2129;8;2;6;475;579;22;7;0;1344;6;0;449;13;8;2;1352;4;2;436;13;9;0;647;6;1;476;9
23.12.17;15:50:00;1;470;7696;0;2;0;1347;6;0;405;10;3;1;745;3;9;472;13;4;0;1053;3;0;218;11;5;76;3135;4;18;18;378;606;23;6;31;2129;1;11;18;499;472;23;7;1;1344;3;3;422;13;8;0;1351;3;3;425;13;9;0;647;6;1;467;10
23.12.17;15:45:00;1;240;7649;0;2;4;1347;6;8;404;10;3;3;745;6;12;472;13;4;0;1053;3;0;207;11;5;98;3129;4;34;33;378;606;23;6;65;2126;4;16;21;451;419;23;7;6;1344;6;9;430;14;8;0;1351;6;4;456;13;9;0;647;6;0;530;10
23.12.17;15:40:00;1;241;7629;0;2;3;1347;6;7;406;10;3;2;745;6;5;507;13;4;0;1053;3;0;222;11;5;105;3120;4;39;40;378;606;23;6;69;2121;4;42;42;451;419;23;7;2;1343;6;4;462;14;8;2;1351;6;4;464;13;9;3;647;4;6;484;10
23.12.17;15:35:00;1;530;7609;0;2;5;1347;6;10;403;11;3;1;744;6;6;503;13;4;0;1053;3;0;226;12;5;105;3111;4;38;38;378;606;23;6;65;2115;4;34;33;451;419;23;7;2;1343;6;5;458;14;8;2;1351;6;9;435;13;9;0;647;6;4;507;10
23.12.17;15:30:00;1;242;7561;0;2;3;1346;6;7;409;11;3;1;744;6;6;508;13;4;0;1053;3;0;230;12;5;113;3102;4;44;38;378;606;23;6;74;2109;4;29;33;451;419;23;7;1;1343;6;6;463;14;8;0;1351;6;4;468;14;9;1;647;6;6;488;10
23.12.17;15:25:00;1;283;7541;0;2;26;1346;6;41;385;11;3;0;744;6;0;540;14;4;7;1053;3;7;199;12;5;143;3093;4;55;50;378;606;23;6;89;2103;4;52;68;451;419;23;7;0;1343;6;0;493;14;8;0;1351;6;0;492;14;9;0;647;6;4;518;10
23.12.17;15:20:00;1;528;7517;0;2;3;1344;6;7;408;11;3;3;744;3;12;487;14;4;0;1052;3;0;230;12;5;113;3081;4;44;38;378;606;23;6;72;2096;4;36;31;451;419;23;7;4;1343;4;9;443;14;8;2;1351;3;11;445;14;9;2;647;6;3;513;10
23.12.17;15:15:00;1;332;7466;0;2;7;1344;6;12;409;11;3;2;744;6;8;512;14;4;5;1052;3;5;199;12;5;132;3072;4;54;47;378;606;23;6;88;2090;4;51;64;451;419;23;7;4;1342;6;8;468;14;8;6;1351;6;17;443;14;9;0;647;6;0;544;10
23.12.17;15:10:00;1;210;7442;0;2;15;1343;6;24;406;11;3;5;744;6;9;521;14;4;12;1052;3;12;199;12;5;163;3061;4;66;64;378;606;23;6;103;2082;4;43;43;451;419;23;7;11;1342;6;19;456;15;8;5;1350;6;9;479;14;9;2;647;4;9;500;10
23.12.17;15:05:00;1;236;7424;0;2;78;1342;6;98;368;12;3;10;743;6;16;533;14;4;47;1051;3;49;198;12;5;238;3047;4;110;98;378;606;23;6;145;2074;4;76;81;451;419;23;7;40;1341;6;61;473;15;8;41;1350;6;64;473;14;9;12;647;3;20;510;10
23.12.17;15:00:00;1;437;7387;0;2;74;1336;4;101;374;12;3;14;743;6;24;506;14;4;42;1047;3;43;198;12;5;214;3027;4;96;87;378;606;23;6;137;2061;4;74;74;451;419;23;7;44;1338;4;54;451;15;8;40;1347;4;58;463;14;9;3;645;6;7;547;10
23.12.17;14:55:00;1;195;7364;0;2;72;1330;4;97;363;12;3;0;741;6;0;557;14;4;24;1044;3;25;198;12;5;209;3010;4;97;83;378;606;23;6;131;2050;4;58;63;451;419;23;7;34;1334;6;61;437;15;8;38;1343;6;64;435;15;9;5;645;6;9;535;10
23.12.17;14:50:00;1;434;7347;0;2;141;1324;4;168;373;12;3;64;741;4;93;477;14;4;99;1042;3;103;212;12;5;335;2992;4;166;145;378;606;23;6;209;2039;4;113;108;451;419;23;7;110;1332;4;151;456;15;8;115;1340;4;153;454;15;9;50;645;6;64;495;10
23.12.17;14:45:00;1;491;7307;0;2;129;1312;4;160;373;12;3;44;736;6;64;530;14;4;89;1034;5;93;209;12;5;317;2964;4;157;137;378;606;23;6;198;2021;4;111;109;451;419;23;7;98;1323;4;123;447;15;8;96;1331;4;130;449;15;9;12;641;4;16;550;10
23.12.17;14:40:00;1;195;7287;0;2;201;1301;4;230;378;12;3;119;733;4;153;487;14;4;157;1026;5;163;225;12;5;442;2937;4;224;192;386;606;23;6;276;2004;4;133;131;451;419;23;7;181;1315;4;207;456;15;8;186;1322;4;213;447;15;9;81;639;4;103;497;10
23.12.17;14:35:00;1;485;7271;0;2;97;1285;4;124;366;12;3;36;723;4;56;478;14;4;62;1013;5;65;201;12;5;245;2900;4;121;103;378;606;23;6;159;1981;4;79;76;451;419;23;7;80;1300;4;109;398;15;8;79;1307;4;108;457;15;9;14;632;6;23;514;10
23.12.17;14:30:00;1;230;7227;0;2;92;1276;4;118;363;12;3;13;719;6;24;512;14;4;50;1007;3;52;198;12;5;227;2881;4;109;95;378;606;23;6;142;1969;4;64;64;451;419;23;7;63;1292;4;94;398;15;8;71;1300;4;94;402;15;9;4;631;6;8;549;11
23.12.17;14:25:00;1;239;7207;0;2;70;1268;4;96;371;12;3;0;718;6;0;557;14;4;29;1003;3;30;198;12;5;202;2862;4;95;83;378;606;23;6;130;1956;4;68;74;451;419;23;7;12;1287;6;26;448;15;8;14;1294;6;26;453;15;9;4;631;6;8;536;11
23.12.17;14:20:00;1;508;7187;0;2;82;1262;4;107;358;12;3;15;718;4;26;518;15;4;46;1001;3;48;198;12;5;224;2845;4;109;93;378;606;23;6;141;1945;4;72;76;451;419;23;7;50;1286;4;76;386;15;8;51;1293;4;78;389;15;9;4;631;6;7;543;11
23.12.17;14:15:00;1;196;7140;0;2;139;1255;4;167;374;12;3;79;717;4;113;467;15;4;99;997;3;103;215;12;5;335;2825;4;170;147;378;606;23;6;216;1933;4;116;117;451;419;23;7;116;1282;4;147;419;15;8;119;1289;4;148;431;15;9;21;631;3;31;535;11
23.12.17;14:10:00;1;199;7124;0;2;171;1244;4;198;377;12;3;97;711;4;132;498;15;4;136;989;5;141;220;12;5;406;2797;4;202;183;384;606;23;6;254;1915;4;138;133;451;419;23;7;156;1273;4;192;437;15;8;160;1279;4;195;459;15;9;85;628;4;112;506;11
23.12.17;14:05:00;1;488;7107;0;2;178;1230;4;207;381;12;3;100;702;4;136;507;15;4;133;978;5;138;221;12;5;421;2763;4;211;185;393;606;23;6;264;1894;4;132;131;451;419;23;7;157;1260;4;198;430;15;8;158;1266;4;190;463;15;9;88;621;4;113;500;11
23.12.17;14:00:00;1;196;7064;0;2;168;1215;4;197;373;12;3;97;694;4;134;494;15;4;130;967;5;136;222;12;5;399;2728;4;200;176;386;606;23;6;254;1872;4;138;139;451;419;23;7;148;1247;4;184;465;15;8;154;1253;4;183;472;15;9;85;614;4;110;477;11
23.12.17;13:55:00;1;196;7047;0;2;188;1201;4;218;373;12;3;107;686;4;146;507;15;4;147;956;5;153;222;12;5;443;2695;4;226;194;395;606;23;6;279;1851;4;124;121;451;419;23;7;169;1235;4;203;447;15;8;172;1240;4;202;461;15;9;94;606;4;119;484;11
23.12.17;13:50:00;1;435;7031;0;2;180;1186;4;209;376;12;3;103;677;4;140;502;15;4;129;944;5;135;222;12;5;417;2658;4;208;183;389;606;23;6;269;1828;4;159;157;451;419;23;7;160;1221;4;195;466;15;8;169;1226;4;201;466;15;9;91;599;4;116;499;11
23.12.17;13:45:00;1;196;6988;0;2;124;1171;4;151;366;13;3;72;669;4;105;469;15;4;83;933;5;86;205;12;5;303;2624;4;147;129;378;606;23;6;196;1806;4;103;98;451;419;23;7;113;1208;4;140;452;15;8;111;1212;4;145;452;15;9;13;591;4;17;563;11
23.12.17;13:40:00;1;196;6971;0;2;136;1160;4;164;373;13;3;78;663;4;111;465;15;4;95;926;3;99;208;13;5;327;2599;4;166;143;378;606;23;6;208;1790;4;117;111;451;419;23;7;132;1198;4;160;452;15;8;126;1203;4;161;445;15;9;64;590;4;87;418;11
23.12.17;13:35:00;1;805;6955;0;2;122;1149;4;151;373;13;3;58;656;4;87;480;15;4;89;918;5;92;204;13;5;304;2571;4;149;133;378;606;23;6;195;1772;4;121;119;451;419;23;7;113;1187;4;139;431;15;8;104;1192;4;136;463;15;9;29;585;4;39;526;11
23.12.17;13:30:00;1;238;6908;0;2;110;1139;4;136;362;13;3;32;651;6;50;516;15;4;66;911;3;68;198;13;5;268;2546;4;130;116;378;606;23;6;173;1756;4;90;88;451;418;23;7;86;1177;4;125;421;15;8;90;1183;4;124;428;15;9;7;582;6;11;554;11